When you browse on this site, cookies collect data to enhance your experience and personalize the content and advertising you see.
Visit our Privacy Policy to learn more. By continuing to use the site, you agree to this use of cookies and data.
  • In Sweden
  • List of Countries
  • For 7 days
  • Water Temperature
  • Satellite Maps
  • Weather Map
  • Weather Widgets
  • user-avatar
    Login

    Hourly Weather Onyshkivtsi

    Today, 23 April, Tuesday

    Time Temperature Precipitation Wind Pressure Humidity
    00:00 +7°C° 0 mm 2 mps 745 mmHg 66%
    01:00 +7°C° 0 mm 2 mps 745 mmHg 66%
    02:00 +5°C° 0 mm 3 mps 745 mmHg 67%
    03:00 +5°C° 0 mm 3 mps 745 mmHg 66%
    04:00 +5°C° 0 mm 3 mps 745 mmHg 66%
    05:00 +5°C° 0 mm 3 mps 745 mmHg 65%
    06:00 +8°C° 0 mm 3 mps 745 mmHg 62%
    07:00 +10°C° 0 mm 4 mps 746 mmHg 59%
    08:00 +11°C° 0 mm 4 mps 746 mmHg 55%
    09:00 +13°C° 0 mm 5 mps 746 mmHg 50%
    10:00 +14°C° 0 mm 6 mps 746 mmHg 44%
    11:00 +15°C° 0 mm 6 mps 746 mmHg 39%
    12:00 +15°C° 0 mm 6 mps 746 mmHg 39%
    13:00 +16°C° 0 mm 6 mps 745 mmHg 40%
    14:00 +16°C° 0 mm 6 mps 745 mmHg 41%
    15:00 +15°C° 0 mm 6 mps 745 mmHg 42%
    16:00 +15°C° 0 mm 6 mps 745 mmHg 43%
    17:00 +15°C° 0 mm 5 mps 745 mmHg 45%
    18:00 +14°C° 0 mm 5 mps 745 mmHg 49%
    19:00 +12°C° 0 mm 4 mps 745 mmHg 54%
    20:00 +11°C° 0 mm 4 mps 745 mmHg 59%
    21:00 +10°C° 0 mm 4 mps 745 mmHg 60%
    22:00 +8°C° 0 mm 4 mps 745 mmHg 61%
    23:00 +8°C° 0 mm 4 mps 745 mmHg 62%

    Tomorrow, 24 April, Wednesday

    Time Temperature Precipitation Wind Pressure Humidity
    00:00 +7°C° 0 mm 4 mps 745 mmHg 64%
    01:00 +7°C° 0 mm 4 mps 745 mmHg 66%
    02:00 +6°C° 0 mm 4 mps 745 mmHg 67%
    03:00 +6°C° 0 mm 4 mps 745 mmHg 68%
    04:00 +6°C° 0 mm 4 mps 745 mmHg 69%
    05:00 +5°C° 0 mm 4 mps 745 mmHg 69%
    06:00 +7°C° 0 mm 5 mps 745 mmHg 64%
    07:00 +8°C° 0 mm 6 mps 745 mmHg 60%
    08:00 +10°C° 0 mm 7 mps 745 mmHg 55%
    09:00 +11°C° 0 mm 7 mps 745 mmHg 51%
    10:00 +14°C° 0 mm 7 mps 745 mmHg 48%
    11:00 +15°C° 0 mm 8 mps 745 mmHg 45%
    12:00 +15°C° 0 mm 8 mps 745 mmHg 43%
    13:00 +16°C° 0 mm 8 mps 745 mmHg 42%
    14:00 +17°C° 0 mm 8 mps 745 mmHg 41%
    15:00 +16°C° 0 mm 7 mps 745 mmHg 42%
    16:00 +16°C° 0 mm 7 mps 744 mmHg 44%
    17:00 +16°C° 0 mm 6 mps 744 mmHg 45%
    18:00 +14°C° 0 mm 5 mps 744 mmHg 50%
    19:00 +13°C° 0 mm 5 mps 744 mmHg 55%
    20:00 +11°C° 0 mm 4 mps 744 mmHg 60%
    21:00 +11°C° 0 mm 4 mps 744 mmHg 61%
    22:00 +11°C° 0 mm 4 mps 744 mmHg 62%
    23:00 +9°C° 0 mm 5 mps 745 mmHg 64%

    Day after tomorrow, 25 April, Thursday

    Time Temperature Precipitation Wind Pressure Humidity
    00:00 +10°C° 0 mm 4 mps 745 mmHg 66%
    01:00 +8°C° 0 mm 4 mps 744 mmHg 68%
    02:00 +8°C° 0 mm 4 mps 744 mmHg 70%
    03:00 +8°C° 0 mm 4 mps 744 mmHg 72%
    04:00 +7°C° 0 mm 4 mps 744 mmHg 74%
    05:00 +7°C° 0 mm 4 mps 744 mmHg 76%
    06:00 +8°C° 0 mm 5 mps 745 mmHg 71%
    07:00 +9°C° 0 mm 5 mps 745 mmHg 66%
    08:00 +11°C° 0 mm 6 mps 745 mmHg 61%
    09:00 +13°C° 0 mm 6 mps 745 mmHg 56%
    10:00 +15°C° 0 mm 6 mps 745 mmHg 52%
    11:00 +16°C° 0 mm 7 mps 745 mmHg 47%
    12:00 +17°C° 0 mm 7 mps 745 mmHg 46%
    13:00 +17°C° 0 mm 6 mps 744 mmHg 45%
    14:00 +19°C° 0 mm 6 mps 744 mmHg 44%
    15:00 +19°C° 0 mm 6 mps 744 mmHg 45%
    16:00 +19°C° 0 mm 6 mps 743 mmHg 47%
    17:00 +19°C° 0 mm 6 mps 743 mmHg 49%
    18:00 +16°C° 0 mm 5 mps 743 mmHg 54%
    19:00 +15°C° 0 mm 4 mps 743 mmHg 59%
    20:00 +13°C° 0 mm 4 mps 743 mmHg 64%
    21:00 +13°C° 0 mm 4 mps 743 mmHg 65%
    22:00 +12°C° 0 mm 4 mps 743 mmHg 65%
    23:00 +12°C° 0 mm 4 mps 743 mmHg 66%

    26 April, Friday

    Time Temperature Precipitation Wind Pressure Humidity
    00:00 +11°C° 0 mm 4 mps 742 mmHg 66%
    01:00 +10°C° 0 mm 5 mps 742 mmHg 67%
    02:00 +10°C° 0 mm 5 mps 742 mmHg 67%
    03:00 +9°C° 0 mm 5 mps 742 mmHg 68%
    04:00 +10°C° 0 mm 4 mps 742 mmHg 69%
    05:00 +10°C° 0 mm 4 mps 742 mmHg 69%
    06:00 +10°C° 0 mm 5 mps 742 mmHg 66%
    07:00 +12°C° 0 mm 5 mps 742 mmHg 64%
    08:00 +13°C° 0 mm 6 mps 742 mmHg 61%
    09:00 +15°C° 0 mm 6 mps 741 mmHg 58%
    10:00 +16°C° 0 mm 6 mps 741 mmHg 56%
    11:00 +17°C° 0 mm 6 mps 741 mmHg 54%
    12:00 +19°C° 0.1 mm 6 mps 741 mmHg 54%
    13:00 +19°C° 0.1 mm 6 mps 741 mmHg 55%
    14:00 +20°C° 0.1 mm 6 mps 740 mmHg 55%
    15:00 +20°C° 0 mm 6 mps 740 mmHg 56%
    16:00 +20°C° 0 mm 6 mps 739 mmHg 57%
    17:00 +20°C° 0 mm 6 mps 739 mmHg 58%
    18:00 +19°C° 0 mm 5 mps 739 mmHg 60%
    19:00 +16°C° 0 mm 5 mps 739 mmHg 63%
    20:00 +15°C° 0 mm 5 mps 739 mmHg 65%
    21:00 +14°C° 0 mm 5 mps 739 mmHg 64%
    22:00 +14°C° 0 mm 5 mps 738 mmHg 63%
    23:00 +14°C° 0 mm 5 mps 738 mmHg 62%

    27 April, Saturday

    Time Temperature Precipitation Wind Pressure Humidity
    00:00 +13°C° 0 mm 5 mps 738 mmHg 63%
    01:00 +13°C° 0 mm 5 mps 738 mmHg 64%
    02:00 +13°C° 0 mm 5 mps 737 mmHg 64%
    03:00 +12°C° 0.1 mm 5 mps 737 mmHg 67%
    04:00 +10°C° 0.1 mm 5 mps 737 mmHg 70%
    05:00 +10°C° 0.1 mm 5 mps 737 mmHg 73%
    06:00 +12°C° 0.3 mm 5 mps 737 mmHg 71%
    07:00 +13°C° 0.3 mm 5 mps 737 mmHg 70%
    08:00 +14°C° 0.3 mm 5 mps 737 mmHg 68%
    09:00 +16°C° 0.1 mm 6 mps 737 mmHg 65%
    10:00 +17°C° 0.1 mm 6 mps 737 mmHg 62%
    11:00 +20°C° 0.1 mm 6 mps 737 mmHg 59%
    12:00 +21°C° 0 mm 6 mps 736 mmHg 57%
    13:00 +22°C° 0 mm 6 mps 736 mmHg 54%
    14:00 +23°C° 0 mm 6 mps 736 mmHg 52%
    15:00 +22°C° 0 mm 6 mps 735 mmHg 53%
    16:00 +22°C° 0 mm 5 mps 735 mmHg 54%
    17:00 +21°C° 0 mm 5 mps 734 mmHg 55%
    18:00 +20°C° 0 mm 4 mps 734 mmHg 59%
    19:00 +18°C° 0 mm 4 mps 734 mmHg 64%
    20:00 +17°C° 0 mm 3 mps 734 mmHg 68%
    21:00 +16°C° 0.1 mm 3 mps 734 mmHg 71%
    22:00 +16°C° 0.1 mm 3 mps 735 mmHg 75%
    23:00 +14°C° 0.1 mm 4 mps 735 mmHg 78%

    28 April, Sunday

    Time Temperature Precipitation Wind Pressure Humidity
    00:00 +14°C° 0.1 mm 4 mps 735 mmHg 83%
    01:00 +14°C° 0.1 mm 3 mps 735 mmHg 88%
    02:00 +13°C° 0.1 mm 3 mps 735 mmHg 93%
    03:00 +13°C° 0.1 mm 4 mps 735 mmHg 91%
    04:00 +13°C° 0.1 mm 4 mps 735 mmHg 90%
    05:00 +12°C° 0.1 mm 4 mps 735 mmHg 88%
    06:00 +12°C° 0 mm 4 mps 735 mmHg 88%
    07:00 +12°C° 0 mm 4 mps 735 mmHg 87%
    08:00 +12°C° 0 mm 4 mps 735 mmHg 87%
    09:00 +13°C° 0.1 mm 4 mps 735 mmHg 83%
    10:00 +14°C° 0.1 mm 3 mps 735 mmHg 79%
    11:00 +14°C° 0.1 mm 3 mps 735 mmHg 75%
    12:00 +16°C° 0.1 mm 3 mps 735 mmHg 71%
    13:00 +17°C° 0.1 mm 3 mps 735 mmHg 67%
    14:00 +17°C° 0.1 mm 3 mps 735 mmHg 62%
    15:00 +17°C° 0.1 mm 3 mps 735 mmHg 65%
    16:00 +17°C° 0.1 mm 2 mps 735 mmHg 67%
    17:00 +16°C° 0.1 mm 2 mps 734 mmHg 70%
    18:00 +15°C° 0.1 mm 2 mps 735 mmHg 73%
    19:00 +14°C° 0.1 mm 2 mps 735 mmHg 77%
    20:00 +13°C° 0.1 mm 2 mps 735 mmHg 81%
    21:00 +13°C° 0 mm 2 mps 735 mmHg 82%
    22:00 +12°C° 0 mm 2 mps 735 mmHg 84%
    23:00 +12°C° 0 mm 1 mps 735 mmHg 86%
    Show more